Location: Cormont
(50.5693°N, 1.7416°E)
Time: 09:11:45
(UTC+00:00)

STARLINK-25 - Pass Details

Date: 21 October 2019
Orbit: 548 x 552 km, 53.0° (Epoch: 20 November)

Event Time Altitude Azimuth Distance (km) Brightness Sun altitude
Rises 17:44:30 0° 268° (W) 2,722 9.5 -9.4°
Reaches altitude 10° 17:46:45 10° 272° (W) 1,828 7.9 -9.7°
Maximum altitude 17:50:52 62° 354° (N) 621 3.9 -10.4°
Enters shadow 17:54:12 15° 74° (ENE) 1,520 5.2 -10.9°
